Вернуться в каталог

COSMOS 1867 COOLANT

АктивенLEO
NORAD 50794·DEBRIS·🇷🇺 Russia

Запущен Jul 10, 1987 с Baikonur Cosmodrome

Loading…

Ближайшие Пролёты (ближайшие 24 часа)

TLE

УстаревающийSource: Space-Track

Эпоха: Sep 11, 2026, 00:59 UTC

1 50794U 87060AW  26254.04150676  .00000243  00000-0  11990-3 0  9996
2 50794  65.0068 125.3839 0018334 281.0765  78.8259 14.35150690421191

Отслеживайте COSMOS 1867 COOLANT в реальном времени с AllMySat

Download on the App Store